Location: Crescent
(42.8242°N, 73.7329°W)
Time: 17:22:53
(UTC+00:00)

Transit 2A - Visible Passes

Search period start: 19 January 2026 00:00
Search period end: 29 January 2026 00:00
Orbit: 589 x 956 km, 66.7° (Epoch: 19 January)

Date Brightness Start Highest point End Pass type
(mag) Time Alt. Az. Time Alt. Az. Time Alt. Az.
19 Jan 7.6 00:57:53 10° SW 01:00:58 34° SW 01:00:58 34° SW visible
19 Jan 8.8 08:09:26 16° E 08:09:26 16° E 08:10:52 10° E visible
19 Jan 6.1 09:49:50 78° WSW 09:49:57 79° WSW 09:55:43 10° SSE visible
19 Jan 8.0 11:30:14 11° W 11:31:55 12° W 11:34:01 10° WSW visible
19 Jan 8.1 22:43:40 10° ESE 22:45:30 11° E 22:46:26 11° E visible
20 Jan 6.3 00:21:37 10° SSW 00:26:51 69° SSE 00:26:51 69° SSE visible
20 Jan 8.9 02:06:21 10° W 02:07:16 14° W 02:07:16 14° W visible
20 Jan 7.1 09:15:33 44° SE 09:15:33 44° SE 09:19:25 10° SE visible
20 Jan 7.6 10:55:58 19° WSW 10:55:58 19° WSW 10:59:51 10° SW visible
20 Jan 6.4 23:45:35 10° S 23:51:12 52° ESE 23:52:40 43° ENE visible
21 Jan 8.0 01:29:15 10° WSW 01:33:04 29° WNW 01:33:04 29° WNW visible
21 Jan 8.4 08:41:22 19° SE 08:41:22 19° SE 08:42:53 10° SE visible
21 Jan 7.5 10:21:47 24° SW 10:21:47 24° SW 10:24:44 10° SSW visible
21 Jan 6.9 23:09:50 10° S 23:15:04 35° ESE 23:18:22 21° ENE visible
22 Jan 7.2 00:52:23 10° WSW 00:58:03 44° NW 00:58:46 42° NNW visible
22 Jan 8.0 09:47:40 18° S 09:47:40 18° S 09:49:10 10° S visible
22 Jan 7.4 22:34:25 10° SSE 22:39:00 24° ESE 22:43:49 10° NE visible
23 Jan 6.7 00:15:44 10° SW 00:21:35 61° NW 00:24:21 33° NNE visible
23 Jan 8.8 02:02:18 10° WNW 02:04:45 15° NW 02:04:45 15° NW visible
23 Jan 6.4 23:39:18 10° SSW 23:45:12 86° WNW 23:49:49 19° NNE visible
24 Jan 8.4 01:24:47 10° W 01:29:17 21° NW 01:30:12 20° NNW visible
24 Jan 6.4 23:03:06 10° SSW 23:08:55 68° ESE 23:15:10 10° NE visible
25 Jan 8.1 00:47:31 10° W 00:52:36 27° NW 00:55:33 19° N visible
25 Jan 6.7 22:27:08 10° S 22:32:42 46° ESE 22:38:39 10° NE visible
26 Jan 7.7 00:10:29 10° WSW 00:15:59 36° NW 00:20:47 14° NNE visible
26 Jan 9.0 01:59:17 10° NW 02:01:05 11° NNW 02:01:09 11° NNW visible
26 Jan 7.2 23:33:40 10° SW 23:39:27 49° NW 23:45:35 10° NNE visible
27 Jan 8.8 01:21:03 10° WNW 01:24:11 14° NNW 01:26:18 12° N visible
27 Jan 6.7 22:57:05 10° SW 23:03:01 68° WNW 23:09:20 10° NNE visible
28 Jan 8.7 00:43:18 10° WNW 00:47:22 18° NW 00:51:20 10° N visible
28 Jan 6.5 22:20:42 10° SSW 22:26:39 86° ESE 22:33:00 10° NNE visible
